Terminal Aerodrome Forecast
Issued by NWS

Home | Current Version | Previous Version | Text Only | Print | Product List | Glossary On
Versions: 1 2 3 4 5 6 7 8 9 10 11 12 13 14 15 16 17 18 19 20 21 22 23 24
000
FTUS43 KIWX 120332 AAB
TAFSBN
TAF AMD
KSBN 120332Z 1204/1224 31008KT 4SM BR OVC015
     FM120700 32015G22KT 1 1/2SM -SHSN OVC018
     FM121000 32018G26KT 3/4SM -SHSN BLSN OVC020
      TEMPO 1210/1214 1/2SM SN BLSN VV008
     FM121600 31017G25KT 2SM -SHSN OVC025=

USA.gov is the U.S. government's official web portal to all federal, state and local government web resources and services.